sat.trackr.live / text

‹ back to catalog

STARLINK-3771

NORAD 52293 · 2022-041AJ

PAYLOAD ACTIVE UNKNOWN

§ Identity

Operator
Country
US
Launch date
2022-04-21
Launch site
AFETR
Launch vehicle
Mass (kg)
RCS (m²)

Purposes: comms

External: N2YO · Heavens-Above · Gunter

§ Orbital elements

Epoch: 2026-09-19T17:36:09.237600Z

Period
93.85 min
Inclination
53.1590°
Eccentricity
0.0001241
Mean motion
15.34387719 rev/d
Perigee alt
461.9 km
Apogee alt
463.6 km
Semi-major
6,840.9 km
B*
2.4225e-5
RAAN
294.9749°
Arg perigee
87.3877°
Mean anomaly
272.7267°
Rev number
24,397

§ Raw data

STARLINK-37711 52293U 22041AJ  26262.73344025  .00000442  00000+0  24225-4 0  99942 52293  53.1590 294.9749 0001241  87.3877 272.7267 15.34387719243974

JSON: /api/v1/satellites/52293 · /tle

For live sub-satellite position, see the globe view (requires WebGL).

§ Visibility from observer

Set your observer location to see the next 7 days of passes ≥ 10°. The values pass through the URL so the page stays shareable.

No JS? Fill the form by hand. The geolocation button needs JavaScript.